Location: American Canyon
(38.1966°N, 122.1514°W)
Time: 16:57:04
(UTC+00:00)

Cosmos 2278 - Pass Details

Date: 29 October 2020
Orbit: 842 x 851 km, 71.1° (Epoch: 23 November)

Event Time Altitude Azimuth Distance (km) Brightness Sun altitude
Exits shadow 13:23:56 - 331° (NNW) 3,204 6.4 -13.9°
Reaches altitude 10° 13:25:55 10° 327° (NNW) 2,465 5.8 -13.6°
Maximum altitude 13:31:21 51° 253° (WSW) 1,055 3.9 -12.5°
Drops below altitude 10° 13:36:46 10° 179° (S) 2,450 6.2 -11.4°
Sets 13:39:15 0° 174° (S) 3,381 7.0 -11.0°
